When you browse on this site, cookies collect data to enhance your experience and personalize the content and advertising you see.
Visit our Privacy Policy to learn more. By continuing to use the site, you agree to this use of cookies and data.
  • In Sweden
  • List of Countries
  • For 7 days
  • Water Temperature
  • Satellite Maps
  • Weather Map
  • Weather Widgets
  • user-avatar
    Login

    Hourly Weather Bilecik

    Today, 21 January, Monday

    Time Temperature Precipitation Wind Pressure Humidity
    00:00 +3°C° 0.1 mm 2 mps 716 mmHg 84%
    01:00 +3°C° 0.1 mm 2 mps 716 mmHg 84%
    02:00 +3°C° 0.1 mm 2 mps 716 mmHg 83%
    03:00 +3°C° 0.1 mm 2 mps 716 mmHg 83%
    04:00 +3°C° 0.1 mm 2 mps 716 mmHg 83%
    05:00 +3°C° 0.1 mm 2 mps 716 mmHg 83%
    06:00 +3°C° 0.2 mm 2 mps 716 mmHg 83%
    07:00 +3°C° 0.2 mm 2 mps 716 mmHg 83%
    08:00 +3°C° 0.2 mm 2 mps 716 mmHg 83%
    09:00 +4°C° 0.2 mm 2 mps 716 mmHg 81%
    10:00 +5°C° 0.2 mm 2 mps 716 mmHg 79%
    11:00 +6°C° 0.2 mm 2 mps 717 mmHg 76%
    12:00 +7°C° 0.4 mm 1 mps 716 mmHg 77%
    13:00 +7°C° 0.4 mm 1 mps 716 mmHg 77%
    14:00 +8°C° 0.4 mm 1 mps 716 mmHg 77%
    15:00 +7°C° 0.1 mm 1 mps 716 mmHg 80%
    16:00 +6°C° 0.1 mm 1 mps 716 mmHg 82%
    17:00 +6°C° 0.1 mm 1 mps 716 mmHg 85%
    18:00 +5°C° 0 mm 1 mps 717 mmHg 85%
    19:00 +5°C° 0 mm 1 mps 717 mmHg 86%
    20:00 +5°C° 0 mm 1 mps 717 mmHg 86%
    21:00 +4°C° 0 mm 1 mps 717 mmHg 87%
    22:00 +4°C° 0 mm 1 mps 717 mmHg 87%
    23:00 +3°C° 0 mm 1 mps 717 mmHg 88%

    Tomorrow, 22 January, Tuesday

    Time Temperature Precipitation Wind Pressure Humidity
    00:00 +3°C° 0 mm 1 mps 717 mmHg 88%
    01:00 +3°C° 0 mm 1 mps 717 mmHg 88%
    02:00 +3°C° 0 mm 1 mps 718 mmHg 88%
    03:00 +3°C° 0 mm 1 mps 717 mmHg 89%
    04:00 +3°C° 0 mm 1 mps 717 mmHg 89%
    05:00 +3°C° 0 mm 1 mps 717 mmHg 89%
    06:00 +3°C° 0 mm 1 mps 717 mmHg 89%
    07:00 +2°C° 0 mm 2 mps 717 mmHg 88%
    08:00 +2°C° 0 mm 2 mps 717 mmHg 88%
    09:00 +4°C° 0 mm 2 mps 718 mmHg 83%
    10:00 +5°C° 0 mm 2 mps 718 mmHg 78%
    11:00 +7°C° 0 mm 2 mps 718 mmHg 74%
    12:00 +7°C° 0 mm 2 mps 717 mmHg 73%
    13:00 +8°C° 0 mm 2 mps 717 mmHg 72%
    14:00 +8°C° 0 mm 2 mps 716 mmHg 71%
    15:00 +7°C° 0 mm 2 mps 716 mmHg 76%
    16:00 +7°C° 0 mm 2 mps 716 mmHg 80%
    17:00 +6°C° 0 mm 2 mps 716 mmHg 84%
    18:00 +5°C° 0 mm 2 mps 715 mmHg 85%
    19:00 +5°C° 0 mm 2 mps 715 mmHg 87%
    20:00 +4°C° 0 mm 2 mps 715 mmHg 88%
    21:00 +4°C° 0 mm 2 mps 715 mmHg 88%
    22:00 +4°C° 0 mm 2 mps 715 mmHg 88%
    23:00 +3°C° 0 mm 2 mps 715 mmHg 88%

    Day after tomorrow, 23 January, Wednesday

    Time Temperature Precipitation Wind Pressure Humidity
    00:00 +2°C° 0 mm 3 mps 715 mmHg 88%
    01:00 +2°C° 0 mm 3 mps 715 mmHg 87%
    02:00 +2°C° 0 mm 3 mps 714 mmHg 87%
    03:00 +2°C° 0 mm 3 mps 714 mmHg 87%
    04:00 +2°C° 0 mm 3 mps 714 mmHg 86%
    05:00 +2°C° 0 mm 3 mps 713 mmHg 86%
    06:00 +2°C° 0 mm 3 mps 713 mmHg 85%
    07:00 +2°C° 0 mm 3 mps 713 mmHg 84%
    08:00 +3°C° 0 mm 3 mps 714 mmHg 83%
    09:00 +4°C° 0 mm 4 mps 714 mmHg 77%
    10:00 +6°C° 0 mm 4 mps 714 mmHg 70%
    11:00 +8°C° 0 mm 4 mps 714 mmHg 64%
    12:00 +10°C° 0 mm 4 mps 713 mmHg 62%
    13:00 +10°C° 0 mm 5 mps 713 mmHg 60%
    14:00 +12°C° 0 mm 5 mps 713 mmHg 58%
    15:00 +11°C° 0 mm 4 mps 713 mmHg 64%
    16:00 +10°C° 0 mm 4 mps 712 mmHg 70%
    17:00 +8°C° 0 mm 3 mps 712 mmHg 76%
    18:00 +8°C° 0.1 mm 3 mps 712 mmHg 78%
    19:00 +7°C° 0.1 mm 3 mps 713 mmHg 80%
    20:00 +7°C° 0.1 mm 3 mps 713 mmHg 82%
    21:00 +5°C° 0.3 mm 3 mps 713 mmHg 82%
    22:00 +5°C° 0.3 mm 3 mps 713 mmHg 83%
    23:00 +5°C° 0.3 mm 3 mps 713 mmHg 83%

    24 January, Thursday

    Time Temperature Precipitation Wind Pressure Humidity
    00:00 +5°C° 0.2 mm 3 mps 712 mmHg 83%
    01:00 +5°C° 0.2 mm 3 mps 712 mmHg 83%
    02:00 +4°C° 0.2 mm 3 mps 711 mmHg 83%
    03:00 +4°C° 0 mm 3 mps 711 mmHg 83%
    04:00 +4°C° 0 mm 3 mps 710 mmHg 83%
    05:00 +3°C° 0 mm 3 mps 710 mmHg 84%
    06:00 +3°C° 0 mm 3 mps 710 mmHg 83%
    07:00 +3°C° 0 mm 4 mps 710 mmHg 83%
    08:00 +3°C° 0 mm 4 mps 710 mmHg 82%
    09:00 +5°C° 0 mm 4 mps 709 mmHg 76%
    10:00 +6°C° 0 mm 4 mps 709 mmHg 70%
    11:00 +8°C° 0 mm 5 mps 709 mmHg 65%
    12:00 +8°C° 0.1 mm 5 mps 708 mmHg 64%
    13:00 +8°C° 0.1 mm 5 mps 707 mmHg 63%
    14:00 +8°C° 0.1 mm 5 mps 707 mmHg 62%
    15:00 +7°C° 0.3 mm 5 mps 706 mmHg 66%
    16:00 +7°C° 0.3 mm 4 mps 706 mmHg 71%
    17:00 +6°C° 0.3 mm 4 mps 706 mmHg 75%
    18:00 +5°C° 0.1 mm 4 mps 706 mmHg 76%
    19:00 +5°C° 0.1 mm 3 mps 706 mmHg 76%
    20:00 +5°C° 0.1 mm 3 mps 706 mmHg 77%
    21:00 +5°C° 0 mm 3 mps 706 mmHg 77%
    22:00 +4°C° 0 mm 3 mps 707 mmHg 77%
    23:00 +4°C° 0 mm 3 mps 707 mmHg 77%

    25 January, Friday

    Time Temperature Precipitation Wind Pressure Humidity
    00:00 +4°C° 0.2 mm 3 mps 707 mmHg 78%
    01:00 +4°C° 0.2 mm 3 mps 708 mmHg 79%
    02:00 +6°C° 0.2 mm 2 mps 708 mmHg 80%
    03:00 +4°C° 0 mm 3 mps 708 mmHg 81%
    04:00 +4°C° 0 mm 3 mps 708 mmHg 82%
    05:00 +4°C° 0 mm 3 mps 708 mmHg 84%
    06:00 +4°C° 0 mm 3 mps 709 mmHg 83%
    07:00 +3°C° 0 mm 3 mps 709 mmHg 82%
    08:00 +3°C° 0 mm 3 mps 709 mmHg 82%
    09:00 +5°C° 0 mm 3 mps 709 mmHg 76%
    10:00 +8°C° 0 mm 3 mps 709 mmHg 70%
    11:00 +8°C° 0 mm 4 mps 709 mmHg 65%
    12:00 +10°C° 0.2 mm 4 mps 709 mmHg 64%
    13:00 +11°C° 0.2 mm 4 mps 708 mmHg 62%
    14:00 +12°C° 0.2 mm 4 mps 708 mmHg 61%
    15:00 +11°C° 0.3 mm 4 mps 708 mmHg 65%
    16:00 +10°C° 0.3 mm 3 mps 707 mmHg 68%
    17:00 +9°C° 0.3 mm 3 mps 707 mmHg 71%
    18:00 +9°C° 0 mm 3 mps 707 mmHg 73%
    19:00 +8°C° 0 mm 3 mps 707 mmHg 74%
    20:00 +8°C° 0 mm 3 mps 707 mmHg 75%
    21:00 +7°C° 1 mm 2 mps 707 mmHg 78%
    22:00 +7°C° 1 mm 2 mps 707 mmHg 82%
    23:00 +7°C° 1 mm 1 mps 707 mmHg 86%

    26 January, Saturday

    Time Temperature Precipitation Wind Pressure Humidity
    00:00 +7°C° 0.5 mm 1 mps 707 mmHg 86%
    01:00 +6°C° 0.5 mm 2 mps 706 mmHg 86%
    02:00 +5°C° 0.5 mm 2 mps 706 mmHg 86%
    03:00 +5°C° 0 mm 2 mps 706 mmHg 86%
    04:00 +5°C° 0 mm 2 mps 706 mmHg 86%
    05:00 +4°C° 0 mm 2 mps 706 mmHg 86%
    06:00 +3°C° 0 mm 3 mps 706 mmHg 85%
    07:00 +3°C° 0 mm 3 mps 706 mmHg 84%
    08:00 +3°C° 0 mm 3 mps 706 mmHg 84%
    09:00 +5°C° 0 mm 4 mps 706 mmHg 77%
    10:00 +7°C° 0 mm 4 mps 706 mmHg 70%
    11:00 +9°C° 0 mm 5 mps 706 mmHg 63%
    12:00 +10°C° 0 mm 5 mps 706 mmHg 61%
    13:00 +10°C° 0 mm 5 mps 705 mmHg 58%
    14:00 +12°C° 0 mm 5 mps 705 mmHg 55%
    15:00 +10°C° 0 mm 5 mps 705 mmHg 59%
    16:00 +10°C° 0 mm 4 mps 705 mmHg 64%
    17:00 +9°C° 0 mm 3 mps 704 mmHg 68%
    18:00 +8°C° 0 mm 3 mps 705 mmHg 70%
    19:00 +7°C° 0 mm 3 mps 705 mmHg 72%
    20:00 +7°C° 0 mm 3 mps 705 mmHg 74%
    21:00 +5°C° 0 mm 3 mps 705 mmHg 75%
    22:00 +5°C° 0 mm 3 mps 705 mmHg 76%
    23:00 +5°C° 0 mm 3 mps 705 mmHg 77%
    Show more